Location: Fort Worth, Tx
(32.7431°N, 97.3695°W)
Time: 00:26:24
(UTC-04:00)

Vanguard 2 - Pass Details

Date: 25 February 2024
Orbit: 552 x 2916 km, 32.9° (Epoch: 24 April)

Event Time Altitude Azimuth Distance (km) Brightness Sun altitude
Exits shadow 03:25:15 10° 142° (SE) 5,128 11.6 -56.6°
Drops below altitude 10° 03:25:16 10° 142° (SE) 5,130 11.6 -56.6°
Sets 03:29:00 0° 137° (SE) 5,901 12.1 -56.0°
